Aérodrome :
LOGIN :

S'inscrire | Disclaimer

   EN    FR    IT 

 










Légende :    VFR   VFR Marginal   IFR   IFR Intensif   IFR Très Intensif
Visi : 
Plafond : 
>= 8 km
>= 3000ft
5 à 8 km
1000 à 3000 ft
1500m à 5 km
500 à 1000 ft
800 à 1500m
200 à 500 ft
< 800m
< 200 ft
Symboles :   Orages  Brouillard  Fortes neiges  Fortes précipitations  Vent > 20 kt
SIGMETs :   Divers  Orages  Givrage  Turbulence  Onde Orograph.  Cendres Volcan.







- Altitude de l'aérodrome : 39 ft


ETNH - Hohn AB

DERNIER METAR :
  • 201820Z 18003KT 5000 MIFG BR SCT110 M05/M06 Q1021 WHT

METARs EXPIRÉS :
  • 201720Z 19001KT 6000 MIFG FEW110 M04/M05 Q1021 WHT
  • 201620Z 18002KT 7000 MIFG FEW110 M02/M04 Q1020 WHT

TAF COR TAF ETNH
Valide du 20 à 12h jusqu'au 21 à 00h UTC


201159Z 2012/2100 21005KT 4500 BR BKN100
TEMPO 2012/2018 VRB03KT 8000 NSW SCT130
BECMG 2022/2100 21007KT 3000 BR BKN100 BY ETGL
Pas de NOTAMs connus pour ce terrain.



MET'MAP, la Météo Aéronautique d'un coup d'oeil ! - Copyright ORBIFLY Décembre 2007 - Disclaimer

ORBIFLY MET'MAP TEAM :

Programmation & Développement : Alexandra Zaïnal
Conception & Développement : Baudouin d'Aumeries
Co-Programmation & Développement : Marc-Olivier Méhu
Soutien technique & logistique : Manuel Goepfert

Contact : metmap@orbifly.com




SOURCES & CREDITS :

   NOAA